Flag for U.S.A. Weather past 2 weeks in Midway, Midway Atoll, U.S.A.

Now
78 °F

Clear.


Feels Like: 80 °F
Forecast: 76 / 83 °F
Wind: 7 mph from West

Location: Midway Island Naval Air Facility

Current Time: Jul 3, 2015 at 11:25:33 PM

Latest Report: Jul 3, 2015 at 10:56 PM


Visibility: 10 mi

Pressure: 30.80 "Hg

Humidity: 90%

Dew point: 75 °F

Location of MidwayLocation

Historic Weather in Midway — Graph

°F

Midway temperature yesterday

Maximum temperature yesterday: 84 °F (at 9:56 AM)
Minimum temperature yesterday: 75 °F (at 2:29 AM)
Average temperature yesterday: 80 °F

Past Weeks' High & Low Weather Summary

 TemperatureHumidityPressure
High87 °F (Jul 3, 12:56 PM)100% (Jun 26, 5:14 AM)31.00 "Hg (Jun 26, 5:14 AM)
Low73 °F (Jun 25, 5:56 AM)51% (Jun 29, 10:56 AM)28.05 "Hg (Jun 29, 3:56 PM)
Average79 °F73%29.71 "Hg
* Reported Jun 18 9:56 PM — Jul 3 9:56 PM, Midway, Weather by CustomWeather, © 2015

Note: Actual official high and low records may vary slightly from our data, if they occured in-between our weather recording intervals... More about our weather records

Advertising

Midway weather history for previous 24 hours

 ConditionsComfort  
Time TempWeatherWind HumidityBarometerVisibility
9:56 PM
Fri, Jul 3
79 °FClear.8 mph87%30.80 "Hg10 mi
8:56 PM79 °FClear.8 mph87%30.79 "Hg10 mi
7:56 PM79 °FClear.8 mph84%30.78 "Hg10 mi
6:56 PM82 °FSunny.7 mph77%30.78 "Hg10 mi
5:56 PM83 °FSunny.10 mph74%30.78 "Hg10 mi
4:56 PM85 °FSunny.9 mph70%30.80 "Hg10 mi
3:56 PM86 °FSunny.10 mph67%30.81 "Hg10 mi
2:56 PM87 °FSunny.10 mph67%30.82 "Hg10 mi
1:56 PM86 °FSunny.12 mph67%30.83 "Hg10 mi
12:56 PM87 °FSunny.12 mph65%30.83 "Hg10 mi
11:56 AM85 °FPassing clouds.12 mph72%30.86 "Hg10 mi
10:56 AM85 °FSunny.10 mph72%30.86 "Hg10 mi
9:56 AM84 °FSunny.9 mph72%30.85 "Hg10 mi
8:56 AM83 °FSunny.9 mph74%30.86 "Hg10 mi
7:56 AM82 °FSunny.9 mph77%30.86 "Hg10 mi
6:56 AM79 °FSunny.7 mph82%30.85 "Hg10 mi
5:56 AM77 °FPassing clouds.6 mph87%30.84 "Hg10 mi
4:56 AM77 °FClear.6 mph87%30.84 "Hg10 mi
3:56 AM77 °FPassing clouds.8 mph87%30.84 "Hg10 mi
2:56 AM77 °FPassing clouds.No wind87%30.85 "Hg10 mi
1:56 AM77 °FClear.No wind85%30.85 "Hg10 mi
12:56 AM77 °FClear.No wind82%30.87 "Hg10 mi
11:56 PM
Thu, Jul 2
78 °FPassing clouds.6 mph79%30.89 "Hg10 mi
Weather by CustomWeather, © 2015

See weather overviewHow to use our weather pages